Weather History for Shaw AFB, SC

Change the Weather History Date:

Tuesday, January 22, 2013

  Actual Average Record
Temperature  
Mean Temperature 41 °F -  
Max Temperature 50 °F 53 °F 78 °F (1999)
Min Temperature 32 °F 32 °F 22 °F (2009)
Degree Days  
Heating Degree Days 24    
Moisture  
Dew Point 15 °F    
Average Humidity 37    
Maximum Humidity 67    
Minimum Humidity 20    
Precipitation  
Precipitation 0.00 in - - ()
Sea Level Pressure  
Sea Level Pressure 30.17 in    
Wind  
Wind Speed 6 mph (WNW)    
Max Wind Speed 10 mph    
Max Gust Speed -    
Visibility 10 miles    
Events      
Averages and records for this station are not official NWS values.
T = Trace of Precipitation, MM = Missing Value Source: NWS Daily Summary

Daily Weather History Graph

Daily Weather History Graph

Search for Another Location

Airport:

Trip Planner

Search our weather history database for the weather conditions in past years. The results will help you decide how hot, cold, wet, or windy it might be!

Date:

Astronomy

Jan. 22, 2013 Rise Set
Actual Time 7:24 AM EST 5:42 PM EST
Civil Twilight 6:57 AM EST 6:09 PM EST
Nautical Twilight 6:27 AM EST 6:40 PM EST
Astronomical Twilight 5:57 AM EST 7:09 PM EST
Moon 2:06 PM EST (1/22) 3:43 AM EST (1/22)
Length of Visible Light 11h 11m
Length of Day
10h 18m
Waxing Gibbous, 82% of the Moon is Illuminated
Jan 22
Waxing Gibbous
Jan 26
Full
Feb 3
Last Quarter
Feb 10
New
Feb 17
First Quarter

Hourly Weather History & Observations

Time (EST) Temp. Windchill Dew Point Humidity Pressure Visibility Wind Dir Wind Speed Gust Speed Precip Events Conditions
12:55 AM 45.1 °F 40.3 °F 21.4 °F 39% 30.03 in 10.0 mi West 9.2 mph - N/A   Clear
1:55 AM 45.0 °F 40.1 °F 15.8 °F 31% 30.04 in 10.0 mi West 9.2 mph - N/A   Clear
2:55 AM 43.0 °F 38.2 °F 15.4 °F 33% 30.06 in 10.0 mi West 8.1 mph - N/A   Clear
3:55 AM 40.8 °F 36.2 °F 16.9 °F 38% 30.04 in 10.0 mi WSW 6.9 mph - N/A   Clear
4:55 AM 39.7 °F 36.5 °F 16.5 °F 39% 30.06 in 10.0 mi West 4.6 mph - N/A   Clear
5:55 AM 38.1 °F - 17.8 °F 44% 30.10 in 10.0 mi Calm Calm - N/A   Clear
6:55 AM 36.9 °F 34.3 °F 18.0 °F 46% 30.13 in 10.0 mi West 3.5 mph - N/A   Clear
7:55 AM 36.1 °F 32.3 °F 17.1 °F 46% 30.17 in 10.0 mi West 4.6 mph - N/A   Clear
8:55 AM 39.7 °F 34.3 °F 15.8 °F 38% 30.19 in 10.0 mi WNW 8.1 mph - N/A   Clear
9:55 AM 42.8 °F 37.0 °F 10.2 °F 26% 30.22 in 10.0 mi North 10.4 mph - N/A   Clear
10:55 AM 44.1 °F 40.8 °F 9.7 °F 25% 30.22 in 10.0 mi North 5.8 mph - N/A   Clear
11:55 AM 45.1 °F 40.8 °F 8.8 °F 23% 30.21 in 10.0 mi NNW 8.1 mph - N/A   Clear
12:55 PM 46.6 °F - 10.4 °F 23% 30.19 in 10.0 mi Calm Calm - N/A   Clear
1:55 PM 48.2 °F - 11.3 °F 23% 30.17 in 10.0 mi NNW 8.1 mph - N/A   Clear
2:55 PM 49.6 °F - 10.6 °F 21% 30.17 in 10.0 mi West 6.9 mph - N/A   Clear
2:57 PM 50.0 °F - 10.4 °F 20% 30.18 in 10.0 mi West 6.9 mph - N/A   Light Drizzle
3:55 PM 50.0 °F - 11.3 °F 21% 30.18 in 10.0 mi West 8.1 mph - N/A   Clear
4:55 PM 48.6 °F - 11.5 °F 23% 30.19 in 10.0 mi West 6.9 mph - N/A   Clear
5:55 PM 45.3 °F 44.0 °F 11.3 °F 25% 30.20 in 10.0 mi WNW 3.5 mph - N/A   Clear
6:55 PM 40.6 °F - 17.4 °F 39% 30.22 in 10.0 mi Calm Calm - N/A   Clear
7:29 PM 37.4 °F - 17.6 °F 45% 30.22 in 10.0 mi Calm Calm - N/A   Light Drizzle
7:40 PM 37.4 °F 34.9 °F 19.4 °F 48% 30.22 in 10.0 mi SSW 3.5 mph - N/A   Clear
7:55 PM 36.1 °F - 20.1 °F 52% 30.22 in 10.0 mi Calm Calm - 0.00 in   Clear
8:55 PM 33.8 °F - 23.7 °F 67% 30.22 in 10.0 mi Calm Calm - N/A   Clear
9:55 PM 34.2 °F - 20.1 °F 57% 30.25 in 10.0 mi Calm Calm - N/A   Clear
10:55 PM 32.7 °F - 20.7 °F 61% 30.25 in 10.0 mi Calm Calm - N/A   Clear
11:55 PM 37.4 °F 33.8 °F 15.4 °F 41% 30.26 in 10.0 mi WNW 4.6 mph - N/A   Clear